Location: Goettingen
(51.5300°N, 9.9433°E)
Time: 19:57:52

ISS - Pass Details

Date: 17 March 2018
Orbit: 403 x 406 km, 51.6° (Epoch: 23 March)

Event Time Altitude Azimuth Distance (km) Brightness Sun altitude
Exits shadow 05:55:06 - 260° (W) 1,598 -1.5 -6.3°
Reaches altitude 10° 05:55:40 10° 252° (WSW) 1,464 -1.6 -6.2°
Maximum altitude 05:57:22 14° 220° (SW) 1,267 -1.7 -5.9°
Drops below altitude 10° 05:59:04 10° 189° (S) 1,458 -1.1 -5.7°
Sets 06:01:54 0° 162° (SSE) 2,312 0.2 -5.2°
